Location: Unspecified
(0.0000°N, 0.0000°E)
Time: 20:01:00
(UTC+00:00)

deb NNS O-4 - Visible Passes

Search period start: 10 April 2026 00:00
Search period end: 20 April 2026 00:00
Orbit: 981 x 1071 km, 89.9° (Epoch: 10 April)

Date Brightness Start Highest point End Pass type
(mag) Time Alt. Az. Time Alt. Az. Time Alt. Az.
10 Apr ? 05:14:03 10° SSE 05:20:04 36° E 05:26:00 10° NNE visible
10 Apr ? 18:26:49 10° NNW 18:32:30 40° W 18:38:17 10° SSW visible
11 Apr ? 19:10:02 10° WNW 19:12:36 13° W 19:15:12 10° WSW visible
12 Apr ? 04:49:53 10° SE 04:55:05 24° E 05:00:13 10° NE visible
13 Apr ? 05:28:34 10° SSE 05:35:12 68° E 05:41:43 10° N visible
13 Apr ? 18:43:11 10° NW 18:47:35 20° W 18:52:02 10° SW visible
14 Apr ? 04:26:20 10° ESE 04:30:06 16° E 04:33:49 10° NE visible
15 Apr ? 05:03:54 10° SSE 05:10:12 45° E 05:16:24 10° NNE visible
15 Apr ? 18:17:12 10° NNW 18:22:34 31° W 18:28:01 10° SSW visible
17 Apr ? 04:39:31 10° SE 04:45:12 30° E 04:50:48 10° NNE visible
18 Apr ? 05:18:39 10° S 05:25:19 84° E 05:31:51 10° N visible
18 Apr ? 18:34:04 10° NW 18:37:38 16° W 18:41:15 10° WSW visible
19 Apr ? 04:15:33 10° SE 04:20:12 20° E 04:24:47 10° NE visible
